| time (UTC) | temp F | wind direction | speed MPH | gust MPH | rain 1hr in | rain 24hr in | rain mn in | humidity % | barometer mb |
| 20260506235405 | 78 | 4 | 3.0 | 6.0 | 0.00 | 0.00 | 0.00 | 42 | 1016.4 |
| 20260506234905 | 77 | 347 | 2.0 | 6.0 | 0.00 | 0.00 | 0.00 | 43 | 1016.4 |
| 20260506234403 | 77 | 49 | 2.0 | 6.0 | 0.00 | 0.00 | 0.00 | 43 | 1016.5 |
| 20260506233903 | 77 | 37 | 4.0 | 10.0 | 0.00 | 0.00 | 0.00 | 44 | 1016.5 |
| 20260506233403 | 77 | 345 | 3.0 | 10.0 | 0.00 | 0.00 | 0.00 | 44 | 1016.5 |
| 20260506232902 | 77 | 10 | 2.0 | 10.0 | 0.00 | 0.00 | 0.00 | 43 | 1016.5 |
| 20260506232403 | 78 | 82 | 5.0 | 10.0 | 0.00 | 0.00 | 0.00 | 43 | 1016.5 |
| 20260506231904 | 78 | 32 | 3.0 | 9.0 | 0.00 | 0.00 | 0.00 | 43 | 1016.5 |
| 20260506231630 | 77 | 13 | 1.0 | 6.0 | 0.00 | 0.00 | 0.00 | 44 | 1016.6 |
| 20260506230904 | 77 | 10 | 2.0 | 6.0 | 0.00 | 0.00 | 0.00 | 43 | 1016.6 |
| 20260506230634 | 77 | 21 | 2.0 | 7.0 | 0.00 | 0.00 | 0.00 | 43 | 1016.7 |
| 20260506225902 | 77 | 31 | 4.0 | 7.0 | 0.00 | 0.00 | 0.00 | 44 | 1016.8 |
| 20260506225403 | 77 | 107 | 2.0 | 6.0 | 0.00 | 0.00 | 0.00 | 44 | 1016.7 |
| 20260506224902 | 77 | 28 | 4.0 | 12.0 | 0.00 | 0.00 | 0.00 | 44 | 1016.8 |
| 20260506224402 | 77 | 0 | 2.0 | 12.0 | 0.00 | 0.00 | 0.00 | 44 | 1016.9 |
| 20260506223902 | 77 | 348 | 4.0 | 9.0 | 0.00 | 0.00 | 0.00 | 44 | 1016.9 |
| 20260506223403 | 77 | 3 | 5.0 | 9.0 | 0.00 | 0.00 | 0.00 | 44 | 1017.1 |
| 20260506222902 | 77 | 80 | 2.0 | 7.0 | 0.00 | 0.00 | 0.00 | 44 | 1017.1 |
| 20260506222623 | 77 | 323 | 4.0 | 7.0 | 0.00 | 0.00 | 0.00 | 44 | 1017.2 |
| 20260506221901 | 76 | 1 | 4.0 | 9.0 | 0.00 | 0.00 | 0.00 | 44 | 1017.2 |
| 20260506221403 | 76 | 102 | 3.0 | 9.0 | 0.00 | 0.00 | 0.00 | 44 | 1017.3 |
| 20260506220901 | 77 | 58 | 2.0 | 6.0 | 0.00 | 0.00 | 0.00 | 44 | 1017.3 |
| 20260506220403 | 76 | 313 | 2.0 | 11.0 | 0.00 | 0.00 | 0.00 | 44 | 1017.4 |
| 20260506215902 | 76 | 137 | 4.0 | 11.0 | 0.00 | 0.00 | 0.00 | 44 | 1017.5 |
| 20260506215401 | 76 | 39 | 4.0 | 6.0 | 0.00 | 0.00 | 0.00 | 45 | 1017.4 |
| 20260506215125 | 76 | 10 | 4.0 | 10.0 | 0.00 | 0.00 | 0.00 | 44 | 1017.6 |
| 20260506214401 | 76 | 169 | 2.0 | 10.0 | 0.00 | 0.00 | 0.00 | 45 | 1017.6 |
| 20260506213901 | 75 | 96 | 4.0 | 10.0 | 0.00 | 0.00 | 0.00 | 46 | 1017.7 |
| 20260506213402 | 75 | 71 | 3.0 | 11.0 | 0.00 | 0.00 | 0.00 | 45 | 1017.7 |
| 20260506212901 | 76 | 44 | 3.0 | 11.0 | 0.00 | 0.00 | 0.00 | 45 | 1017.7 |
| 20260506212401 | 75 | 121 | 3.0 | 7.0 | 0.00 | 0.00 | 0.00 | 45 | 1017.8 |
| 20260506211901 | 75 | 78 | 2.0 | 9.0 | 0.00 | 0.00 | 0.00 | 45 | 1017.7 |
| 20260506211401 | 75 | 85 | 4.0 | 9.0 | 0.00 | 0.00 | 0.00 | 46 | 1017.9 |
| 20260506210902 | 75 | 66 | 2.0 | 9.0 | 0.00 | 0.00 | 0.00 | 47 | 1017.8 |
| 20260506210402 | 74 | 45 | 2.0 | 9.0 | 0.00 | 0.00 | 0.00 | 46 | 1017.9 |
| 20260506205900 | 74 | 49 | 4.0 | 9.0 | 0.00 | 0.00 | 0.00 | 46 | 1017.9 |
| 20260506205401 | 74 | 314 | 2.0 | 6.0 | 0.00 | 0.00 | 0.00 | 47 | 1017.9 |
| 20260506204901 | 73 | 274 | 1.0 | 9.0 | 0.00 | 0.00 | 0.00 | 46 | 1017.9 |
| 20260506204625 | 73 | 6 | 3.0 | 9.0 | 0.00 | 0.00 | 0.00 | 47 | 1017.9 |
| 20260506203901 | 73 | 10 | 3.0 | 9.0 | 0.00 | 0.00 | 0.00 | 49 | 1018.0 |
| 20260506203402 | 73 | 333 | 2.0 | 6.0 | 0.00 | 0.00 | 0.00 | 46 | 1018.0 |
| 20260506203122 | 73 | 0 | 5.0 | 6.0 | 0.00 | 0.00 | 0.00 | 48 | 1018.1 |
| 20260506202623 | 72 | 35 | 2.0 | 6.0 | 0.00 | 0.00 | 0.00 | 49 | 1018.1 |
| 20260506201859 | 72 | 55 | 3.0 | 6.0 | 0.00 | 0.00 | 0.00 | 50 | 1018.2 |
| 20260506201400 | 72 | 13 | 4.0 | 6.0 | 0.00 | 0.00 | 0.00 | 48 | 1018.2 |
| 20260506200859 | 72 | 71 | 3.0 | 7.0 | 0.00 | 0.00 | 0.00 | 48 | 1018.2 |
| 20260506200359 | 72 | 100 | 2.0 | 7.0 | 0.00 | 0.00 | 0.00 | 49 | 1018.3 |
| 20260506200124 | 72 | 44 | 5.0 | 7.0 | 0.00 | 0.00 | 0.00 | 49 | 1018.4 |
| 20260506195619 | 72 | 142 | 2.0 | 6.0 | 0.00 | 0.00 | 0.00 | 49 | 1018.4 |
| 20260506195121 | 71 | 0 | 1.0 | 6.0 | 0.00 | 0.00 | 0.00 | 50 | 1018.5 |
| 20260506194400 | 71 | 66 | 2.0 | 6.0 | 0.00 | 0.00 | 0.00 | 49 | 1018.4 |
| 20260506193901 | 72 | 0 | 1.0 | 6.0 | 0.00 | 0.00 | 0.00 | 50 | 1018.6 |
| 20260506193359 | 71 | 1 | 3.0 | 7.0 | 0.00 | 0.00 | 0.00 | 51 | 1018.6 |
| 20260506193126 | 71 | 133 | 5.0 | 7.0 | 0.00 | 0.00 | 0.00 | 51 | 1018.7 |
| 20260506192359 | 70 | 343 | 1.0 | 6.0 | 0.00 | 0.00 | 0.00 | 52 | 1018.8 |
| 20260506191858 | 70 | 3 | 3.0 | 6.0 | 0.00 | 0.00 | 0.00 | 52 | 1018.9 |
| 20260506191359 | 70 | 0 | 2.0 | 5.0 | 0.00 | 0.00 | 0.00 | 52 | 1018.8 |
| 20260506190858 | 70 | 18 | 0.0 | 7.0 | 0.00 | 0.00 | 0.00 | 52 | 1019.0 |
| 20260506190359 | 70 | 23 | 4.0 | 7.0 | 0.00 | 0.00 | 0.00 | 53 | 1019.1 |
| 20260506185858 | 70 | 52 | 3.0 | 6.0 | 0.00 | 0.00 | 0.00 | 53 | 1019.1 |
| 20260506185359 | 70 | 23 | 2.0 | 6.0 | 0.00 | 0.00 | 0.00 | 54 | 1019.2 |
| 20260506184859 | 69 | 32 | 3.0 | 9.0 | 0.00 | 0.00 | 0.00 | 53 | 1019.2 |
| 20260506184358 | 69 | 0 | 4.0 | 9.0 | 0.00 | 0.00 | 0.00 | 55 | 1019.1 |
| 20260506184116 | 69 | 214 | 1.0 | 7.0 | 0.00 | 0.00 | 0.00 | 56 | 1019.3 |
| 20260506183358 | 69 | 23 | 5.0 | 7.0 | 0.00 | 0.00 | 0.00 | 56 | 1019.3 |
| 20260506182859 | 68 | 214 | 1.0 | 3.0 | 0.00 | 0.00 | 0.00 | 57 | 1019.4 |
| 20260506182358 | 69 | 157 | 1.0 | 5.0 | 0.00 | 0.00 | 0.00 | 57 | 1019.4 |
| 20260506181859 | 68 | 147 | 2.0 | 5.0 | 0.00 | 0.00 | 0.00 | 59 | 1019.6 |
| 20260506181356 | 68 | 116 | 3.0 | 5.0 | 0.00 | 0.00 | 0.00 | 59 | 1019.6 |
| 20260506180859 | 67 | 68 | 2.0 | 5.0 | 0.00 | 0.00 | 0.00 | 60 | 1019.7 |
| 20260506180358 | 67 | 39 | 1.0 | 6.0 | 0.00 | 0.00 | 0.00 | 60 | 1019.7 |
| 20260506175858 | 67 | 63 | 2.0 | 6.0 | 0.00 | 0.00 | 0.00 | 61 | 1019.8 |
| 20260506175357 | 67 | 30 | 1.0 | 5.0 | 0.00 | 0.00 | 0.00 | 62 | 1019.7 |
| 20260506174858 | 66 | 30 | 0.0 | 5.0 | 0.00 | 0.00 | 0.00 | 61 | 1019.8 |
| 20260506174621 | 66 | 21 | 2.0 | 6.0 | 0.00 | 0.00 | 0.00 | 63 | 1020.0 |
| 20260506173857 | 66 | 61 | 4.0 | 6.0 | 0.00 | 0.00 | 0.00 | 63 | 1020.0 |
| 20260506173356 | 65 | 76 | 1.0 | 7.0 | 0.00 | 0.00 | 0.00 | 63 | 1020.0 |
| 20260506172858 | 65 | 92 | 4.0 | 7.0 | 0.00 | 0.00 | 0.00 | 63 | 1020.1 |
| 20260506172354 | 66 | 55 | 3.0 | 6.0 | 0.00 | 0.00 | 0.00 | 63 | 1020.1 |
| 20260506171857 | 66 | 357 | 3.0 | 6.0 | 0.00 | 0.01 | 0.00 | 63 | 1020.0 |
| 20260506171358 | 65 | 3 | 3.0 | 5.0 | 0.00 | 0.01 | 0.00 | 65 | 1020.1 |
| 20260506171124 | 65 | 326 | 2.0 | 5.0 | 0.00 | 0.01 | 0.00 | 64 | 1020.2 |
| 20260506170357 | 65 | 0 | 1.0 | 5.0 | 0.00 | 0.01 | 0.00 | 63 | 1020.2 |
| 20260506165855 | 65 | 0 | 2.0 | 6.0 | 0.00 | 0.01 | 0.00 | 65 | 1020.1 |
| 20260506165357 | 65 | 0 | 2.0 | 6.0 | 0.00 | 0.01 | 0.00 | 66 | 1020.1 |
| 20260506165130 | 65 | 1 | 4.0 | 6.0 | 0.00 | 0.01 | 0.00 | 66 | 1020.1 |
| 20260506164355 | 65 | 37 | 4.0 | 6.0 | 0.00 | 0.01 | 0.00 | 67 | 1020.0 |
| 20260506163856 | 64 | 348 | 3.0 | 6.0 | 0.00 | 0.01 | 0.00 | 67 | 1020.1 |
| 20260506163356 | 64 | 0 | 4.0 | 6.0 | 0.00 | 0.01 | 0.00 | 68 | 1020.2 |
| 20260506163116 | 63 | 330 | 3.0 | 6.0 | 0.00 | 0.02 | 0.00 | 70 | 1020.1 |
| 20260506162357 | 62 | 0 | 4.0 | 6.0 | 0.00 | 0.03 | 0.00 | 70 | 1020.2 |
| 20260506162119 | 62 | 0 | 1.0 | 5.0 | 0.00 | 0.03 | 0.00 | 71 | 1020.2 |
| 20260506161355 | 62 | 348 | 1.0 | 5.0 | 0.00 | 0.03 | 0.00 | 70 | 1020.2 |
| 20260506160857 | 62 | 0 | 2.0 | 6.0 | 0.00 | 0.03 | 0.00 | 70 | 1020.2 |
| 20260506160355 | 63 | 0 | 4.0 | 6.0 | 0.00 | 0.03 | 0.00 | 70 | 1020.2 |
| 20260506155854 | 62 | 0 | 1.0 | 7.0 | 0.00 | 0.03 | 0.00 | 70 | 1020.1 |
| 20260506155355 | 63 | 39 | 4.0 | 9.0 | 0.00 | 0.03 | 0.00 | 70 | 1020.1 |
| 20260506154854 | 62 | 6 | 3.0 | 9.0 | 0.00 | 0.03 | 0.00 | 71 | 1020.1 |
| 20260506154354 | 62 | 3 | 4.0 | 7.0 | 0.00 | 0.03 | 0.00 | 72 | 1019.8 |
| 20260506153855 | 62 | 0 | 3.0 | 9.0 | 0.00 | 0.03 | 0.00 | 72 | 1020.1 |
| 20260506153354 | 62 | 1 | 5.0 | 9.0 | 0.00 | 0.03 | 0.00 | 73 | 1020.1 |
| 20260506153339 | 61 | 348 | 3.0 | 9.0 | 0.00 | 0.03 | 0.00 | 74 | 1020.0 |
| 20260506152355 | 61 | 333 | 3.0 | 7.0 | 0.00 | 0.03 | 0.00 | 74 | 1020.1 |
| 20260506151854 | 60 | 351 | 4.0 | 6.0 | 0.00 | 0.03 | 0.00 | 75 | 1020.0 |
| 20260506151354 | 60 | 324 | 3.0 | 5.0 | 0.00 | 0.03 | 0.00 | 76 | 1020.0 |
| 20260506150855 | 60 | 337 | 3.0 | 5.0 | 0.00 | 0.04 | 0.00 | 77 | 1020.1 |
| 20260506150355 | 59 | 306 | 3.0 | 6.0 | 0.00 | 0.04 | 0.00 | 77 | 1020.0 |
| 20260506145854 | 59 | 336 | 2.0 | 7.0 | 0.00 | 0.04 | 0.00 | 77 | 1019.8 |
| 20260506145353 | 58 | 345 | 3.0 | 7.0 | 0.00 | 0.04 | 0.00 | 78 | 1019.8 |
| 20260506144852 | 58 | 333 | 2.0 | 5.0 | 0.00 | 0.04 | 0.00 | 78 | 1019.8 |
| 20260506144354 | 58 | 319 | 2.0 | 6.0 | 0.00 | 0.04 | 0.00 | 79 | 1020.0 |
| 20260506143852 | 58 | 271 | 5.0 | 7.0 | 0.00 | 0.04 | 0.00 | 79 | 1019.8 |
| 20260506143353 | 57 | 289 | 5.0 | 7.0 | 0.00 | 0.04 | 0.00 | 80 | 1019.8 |
| 20260506142854 | 57 | 283 | 4.0 | 7.0 | 0.00 | 0.04 | 0.00 | 80 | 1019.8 |
| 20260506142618 | 57 | 289 | 4.0 | 7.0 | 0.00 | 0.04 | 0.00 | 81 | 1019.8 |
| 20260506141853 | 56 | 313 | 4.0 | 6.0 | 0.00 | 0.04 | 0.00 | 81 | 1019.8 |
| 20260506141354 | 56 | 278 | 3.0 | 6.0 | 0.00 | 0.04 | 0.00 | 81 | 1019.7 |
| 20260506140854 | 56 | 286 | 3.0 | 6.0 | 0.00 | 0.04 | 0.00 | 81 | 1019.7 |
| 20260506140354 | 56 | 264 | 1.0 | 5.0 | 0.00 | 0.04 | 0.00 | 81 | 1019.7 |
| 20260506135852 | 55 | 261 | 2.0 | 4.0 | 0.00 | 0.04 | 0.00 | 82 | 1019.5 |
| 20260506135353 | 55 | 259 | 2.0 | 5.0 | 0.00 | 0.04 | 0.00 | 82 | 1019.5 |
| 20260506134854 | 55 | 240 | 1.0 | 5.0 | 0.00 | 0.04 | 0.00 | 82 | 1019.4 |
| 20260506134352 | 55 | 252 | 0.0 | 4.0 | 0.00 | 0.04 | 0.00 | 82 | 1019.4 |
| 20260506133852 | 55 | 268 | 1.0 | 4.0 | 0.00 | 0.06 | 0.00 | 82 | 1019.3 |
| 20260506133352 | 55 | 271 | 3.0 | 4.0 | 0.00 | 0.07 | 0.00 | 82 | 1019.3 |
| 20260506132853 | 54 | 252 | 0.0 | 3.0 | 0.00 | 0.08 | 0.00 | 82 | 1019.2 |
| 20260506132351 | 54 | 234 | 2.0 | 3.0 | 0.00 | 0.08 | 0.00 | 82 | 1019.2 |
| 20260506131852 | 54 | 274 | 1.0 | 4.0 | 0.00 | 0.08 | 0.00 | 81 | 1019.2 |
| 20260506131832 | 54 | 275 | 2.0 | 4.0 | 0.00 | 0.08 | 0.00 | 81 | 1019.1 |
| 20260506130852 | 54 | 278 | 1.0 | 4.0 | 0.00 | 0.08 | 0.00 | 81 | 1019.1 |
| 20260506130351 | 54 | 279 | 1.0 | 4.0 | 0.00 | 0.08 | 0.00 | 80 | 1019.1 |
| 20260506125852 | 55 | 279 | 1.0 | 4.0 | 0.00 | 0.09 | 0.00 | 80 | 1019.0 |
| 20260506125614 | 55 | 281 | 1.0 | 3.0 | 0.00 | 0.09 | 0.00 | 80 | 1019.0 |
| 20260506124852 | 55 | 281 | 1.0 | 3.0 | 0.00 | 0.10 | 0.00 | 80 | 1018.9 |
| 20260506124350 | 55 | 228 | 0.0 | 3.0 | 0.00 | 0.10 | 0.00 | 80 | 1018.8 |
| 20260506123851 | 55 | 227 | 0.0 | 3.0 | 0.00 | 0.11 | 0.00 | 80 | 1018.7 |
| 20260506123352 | 55 | 227 | 1.0 | 4.0 | 0.00 | 0.12 | 0.00 | 79 | 1018.8 |
| 20260506122850 | 55 | 226 | 2.0 | 4.0 | 0.00 | 0.12 | 0.00 | 79 | 1018.7 |
| 20260506122351 | 55 | 216 | 1.0 | 5.0 | 0.00 | 0.12 | 0.00 | 79 | 1018.6 |
| 20260506121851 | 55 | 231 | 2.0 | 5.0 | 0.00 | 0.12 | 0.00 | 79 | 1018.4 |
| 20260506121351 | 55 | 209 | 2.0 | 4.0 | 0.00 | 0.12 | 0.00 | 79 | 1018.5 |
| 20260506120850 | 55 | 209 | 2.0 | 3.0 | 0.00 | 0.12 | 0.00 | 79 | 1018.5 |
| 20260506120350 | 56 | 274 | 1.0 | 4.0 | 0.00 | 0.12 | 0.00 | 79 | 1018.5 |
| 20260506115852 | 56 | 275 | 2.0 | 4.0 | 0.00 | 0.12 | 0.00 | 79 | 1018.5 |
| 20260506115351 | 56 | 283 | 0.0 | 3.0 | 0.00 | 0.12 | 0.00 | 79 | 1018.6 |
| 20260506115113 | 56 | 283 | 0.0 | 3.0 | 0.00 | 0.12 | 0.00 | 79 | 1018.7 |
| 20260506114350 | 56 | 283 | 0.0 | 3.0 | 0.00 | 0.13 | 0.00 | 79 | 1018.7 |
| 20260506113849 | 56 | 283 | 1.0 | 4.0 | 0.00 | 0.20 | 0.00 | 79 | 1018.5 |
| 20260506113350 | 56 | 283 | 1.0 | 4.0 | 0.00 | 0.21 | 0.00 | 78 | 1018.6 |
| 20260506112850 | 56 | 283 | 2.0 | 4.0 | 0.00 | 0.21 | 0.00 | 77 | 1018.7 |
| 20260506112614 | 56 | 285 | 3.0 | 4.0 | 0.00 | 0.21 | 0.00 | 77 | 1018.6 |
| 20260506111851 | 57 | 285 | 3.0 | 4.0 | 0.00 | 0.21 | 0.00 | 77 | 1018.5 |
| 20260506111349 | 57 | 288 | 3.0 | 5.0 | 0.00 | 0.21 | 0.00 | 77 | 1018.5 |
| 20260506110851 | 57 | 300 | 2.0 | 6.0 | 0.00 | 0.21 | 0.00 | 76 | 1018.6 |
| 20260506110350 | 57 | 293 | 2.0 | 6.0 | 0.00 | 0.21 | 0.00 | 76 | 1018.6 |
| 20260506105849 | 57 | 290 | 2.0 | 5.0 | 0.00 | 0.21 | 0.00 | 76 | 1018.5 |
| 20260506105350 | 57 | 281 | 3.0 | 5.0 | 0.00 | 0.21 | 0.00 | 76 | 1018.5 |
| 20260506104850 | 57 | 271 | 3.0 | 5.0 | 0.00 | 0.21 | 0.00 | 76 | 1018.5 |
| 20260506104613 | 57 | 289 | 3.0 | 5.0 | 0.00 | 0.21 | 0.00 | 76 | 1018.5 |
| 20260506103849 | 57 | 286 | 3.0 | 5.0 | 0.00 | 0.21 | 0.00 | 76 | 1018.5 |
| 20260506103609 | 57 | 282 | 2.0 | 6.0 | 0.00 | 0.22 | 0.00 | 76 | 1018.4 |
| 20260506102850 | 57 | 278 | 3.0 | 6.0 | 0.00 | 0.22 | 0.00 | 76 | 1018.5 |
| 20260506102349 | 57 | 272 | 4.0 | 6.0 | 0.00 | 0.22 | 0.00 | 76 | 1018.5 |
| 20260506101848 | 57 | 289 | 3.0 | 9.0 | 0.00 | 0.22 | 0.00 | 76 | 1018.5 |
| 20260506101348 | 57 | 283 | 4.0 | 9.0 | 0.00 | 0.22 | 0.00 | 75 | 1018.4 |
| 20260506101335 | 57 | 276 | 5.0 | 10.0 | 0.00 | 0.22 | 0.00 | 75 | 1018.3 |
| 20260506100348 | 57 | 282 | 4.0 | 10.0 | 0.00 | 0.23 | 0.00 | 75 | 1018.3 |
| 20260506100108 | 57 | 296 | 5.0 | 7.0 | 0.00 | 0.23 | 0.00 | 75 | 1018.2 |
| 20260506095348 | 57 | 279 | 4.0 | 7.0 | 0.00 | 0.23 | 0.00 | 75 | 1018.2 |
| 20260506094849 | 56 | 286 | 5.0 | 7.0 | 0.00 | 0.23 | 0.00 | 75 | 1018.2 |
| 20260506094348 | 56 | 298 | 4.0 | 7.0 | 0.00 | 0.23 | 0.00 | 75 | 1018.2 |
| 20260506093848 | 56 | 292 | 5.0 | 9.0 | 0.00 | 0.23 | 0.00 | 74 | 1018.1 |
| 20260506093348 | 56 | 272 | 5.0 | 9.0 | 0.00 | 0.23 | 0.00 | 74 | 1018.2 |
| 20260506093111 | 56 | 278 | 4.0 | 7.0 | 0.00 | 0.23 | 0.00 | 73 | 1018.2 |
| 20260506092349 | 56 | 274 | 5.0 | 9.0 | 0.00 | 0.23 | 0.00 | 73 | 1018.1 |
| 20260506091849 | 56 | 278 | 5.0 | 9.0 | 0.00 | 0.23 | 0.00 | 72 | 1018.1 |
| 20260506091347 | 56 | 243 | 3.0 | 7.0 | 0.00 | 0.23 | 0.00 | 72 | 1018.0 |
| 20260506091108 | 56 | 274 | 4.0 | 7.0 | 0.00 | 0.23 | 0.00 | 72 | 1018.0 |
| 20260506090348 | 56 | 282 | 4.0 | 7.0 | 0.00 | 0.23 | 0.00 | 72 | 1018.0 |
| 20260506085848 | 56 | 259 | 3.0 | 5.0 | 0.00 | 0.23 | 0.00 | 71 | 1018.1 |
| 20260506085607 | 0 | 0.0 | 7.0 | 0.00 | 0.23 | 0.00 | 1018.1 | ||
| 20260506085107 | 56 | 261 | 4.0 | 7.0 | 0.00 | 0.23 | 0.00 | 71 | 1018.0 |
| 20260506084340 | 57 | 275 | 5.0 | 7.0 | 0.00 | 0.23 | 0.00 | 71 | 1018.0 |
| 20260506083842 | 57 | 276 | 2.0 | 5.0 | 0.00 | 0.23 | 0.00 | 70 | 1018.2 |
| 20260506083340 | 57 | 271 | 1.0 | 5.0 | 0.00 | 0.23 | 0.00 | 70 | 1018.1 |
| 20260506082840 | 57 | 278 | 2.0 | 5.0 | 0.00 | 0.23 | 0.00 | 70 | 1018.0 |
| 20260506082340 | 56 | 269 | 2.0 | 5.0 | 0.00 | 0.23 | 0.00 | 70 | 1018.0 |
| 20260506082329 | 56 | 262 | 2.0 | 5.0 | 0.00 | 0.23 | 0.00 | 70 | 1018.0 |
| 20260506081341 | 56 | 224 | 2.0 | 4.0 | 0.00 | 0.23 | 0.00 | 70 | 1017.9 |
| 20260506080840 | 56 | 217 | 1.0 | 3.0 | 0.00 | 0.23 | 0.00 | 70 | 1017.8 |
| 20260506080340 | 56 | 217 | 1.0 | 3.0 | 0.00 | 0.23 | 0.00 | 71 | 1017.8 |
| 20260506072841 | 57 | 214 | 0.0 | 2.0 | 0.00 | 0.23 | 0.00 | 70 | 1017.7 |
| 20260506072338 | 57 | 214 | 1.0 | 2.0 | 0.00 | 0.23 | 0.00 | 70 | 1017.5 |
| 20260506071838 | 57 | 214 | 1.0 | 2.0 | 0.00 | 0.23 | 0.00 | 70 | 1017.6 |
| 20260506071339 | 57 | 214 | 1.0 | 3.0 | 0.00 | 0.23 | 0.00 | 70 | 1017.5 |
| 20260506070838 | 57 | 214 | 1.0 | 3.0 | 0.00 | 0.23 | 0.00 | 70 | 1017.4 |
| 20260506070340 | 57 | 214 | 0.0 | 3.0 | 0.00 | 0.23 | 0.00 | 70 | 1017.4 |
| 20260506062053 | 57 | 207 | 1.0 | 4.0 | 0.00 | 0.23 | 0.23 | 71 | 1016.8 |
| 20260506061338 | 57 | 210 | 1.0 | 5.0 | 0.00 | 0.23 | 0.23 | 71 | 1016.8 |
| 20260506060838 | 57 | 197 | 2.0 | 5.0 | 0.00 | 0.23 | 0.23 | 72 | 1016.7 |
| 20260506060406 | 57 | 200 | 2.0 | 5.0 | 0.00 | 0.23 | 0.23 | 73 | 1016.7 |
| 20260506051337 | 58 | 188 | 4.0 | 6.0 | 0.00 | 0.23 | 0.23 | 73 | 1016.7 |
| 20260506050836 | 58 | 193 | 3.0 | 5.0 | 0.00 | 0.23 | 0.23 | 73 | 1016.7 |
| 20260506050336 | 58 | 193 | 2.0 | 5.0 | 0.00 | 0.23 | 0.23 | 74 | 1016.6 |
| 20260506044835 | 58 | 199 | 4.0 | 7.0 | 0.00 | 0.23 | 0.23 | 73 | 1016.4 |
| 20260506044335 | 58 | 204 | 3.0 | 4.0 | 0.00 | 0.23 | 0.23 | 73 | 1016.5 |
| 20260506043836 | 59 | 197 | 1.0 | 4.0 | 0.00 | 0.23 | 0.23 | 73 | 1016.4 |
| 20260506043336 | 59 | 188 | 2.0 | 4.0 | 0.00 | 0.23 | 0.23 | 73 | 1016.4 |
| 20260506043102 | 59 | 164 | 2.0 | 4.0 | 0.00 | 0.23 | 0.23 | 72 | 1016.3 |
| 20260506042337 | 59 | 137 | 1.0 | 2.0 | 0.00 | 0.23 | 0.23 | 71 | 1016.2 |
| 20260506041835 | 60 | 120 | 0.0 | 2.0 | 0.00 | 0.23 | 0.23 | 70 | 1016.1 |
| 20260506041335 | 60 | 120 | 1.0 | 2.0 | 0.00 | 0.23 | 0.23 | 69 | 1016.0 |
| 20260506040837 | 60 | 118 | 0.0 | 2.0 | 0.00 | 0.23 | 0.23 | 69 | 1016.0 |
| 20260506040558 | 61 | 116 | 0.0 | 2.0 | 0.00 | 0.23 | 0.23 | 67 | 1015.9 |
| 20260506035835 | 61 | 114 | 1.0 | 2.0 | 0.00 | 0.23 | 0.23 | 67 | 1015.9 |
| 20260506035337 | 61 | 114 | 1.0 | 2.0 | 0.00 | 0.23 | 0.23 | 66 | 1015.9 |
| 20260506034836 | 61 | 113 | 0.0 | 1.0 | 0.00 | 0.23 | 0.23 | 66 | 1015.9 |
| 20260506034334 | 61 | 113 | 0.0 | 2.0 | 0.00 | 0.23 | 0.23 | 66 | 1015.8 |
| 20260506033837 | 62 | 113 | 0.0 | 2.0 | 0.00 | 0.23 | 0.23 | 66 | 1015.7 |
| 20260506033336 | 62 | 113 | 0.0 | 3.0 | 0.00 | 0.23 | 0.23 | 65 | 1015.7 |
| 20260506032835 | 62 | 114 | 1.0 | 3.0 | 0.00 | 0.23 | 0.23 | 65 | 1015.6 |
| 20260506032336 | 62 | 286 | 0.0 | 1.0 | 0.00 | 0.23 | 0.23 | 65 | 1015.6 |
| 20260506031835 | 62 | 286 | 0.0 | 0.0 | 0.00 | 0.23 | 0.23 | 65 | 1015.4 |
| 20260506031557 | 62 | 286 | 0.0 | 0.0 | 0.00 | 0.23 | 0.23 | 66 | 1015.4 |
| 20260506030835 | 62 | 286 | 0.0 | 0.0 | 0.00 | 0.23 | 0.23 | 65 | 1015.2 |
| 20260506030334 | 62 | 286 | 0.0 | 2.0 | 0.00 | 0.23 | 0.23 | 65 | 1015.2 |
| 20260506025833 | 62 | 286 | 1.0 | 2.0 | 0.00 | 0.23 | 0.23 | 64 | 1015.1 |
| 20260506025334 | 62 | 286 | 0.0 | 1.0 | 0.00 | 0.23 | 0.23 | 64 | 1015.1 |
| 20260506025100 | 62 | 286 | 0.0 | 1.0 | 0.00 | 0.23 | 0.23 | 64 | 1015.1 |
| 20260506024334 | 62 | 286 | 0.0 | 1.0 | 0.00 | 0.23 | 0.23 | 64 | 1015.0 |
| 20260506023834 | 62 | 286 | 0.0 | 2.0 | 0.00 | 0.23 | 0.23 | 63 | 1015.0 |
| 20260506023334 | 63 | 286 | 1.0 | 2.0 | 0.00 | 0.23 | 0.23 | 63 | 1015.0 |
| 20260506022835 | 63 | 350 | 0.0 | 2.0 | 0.00 | 0.23 | 0.23 | 63 | 1014.9 |
| 20260506022334 | 63 | 214 | 0.0 | 2.0 | 0.00 | 0.23 | 0.23 | 63 | 1014.9 |
| 20260506021832 | 63 | 302 | 0.0 | 2.0 | 0.00 | 0.23 | 0.23 | 63 | 1014.8 |
| 20260506021333 | 63 | 307 | 0.0 | 3.0 | 0.00 | 0.23 | 0.23 | 62 | 1014.7 |
| 20260506020833 | 63 | 307 | 1.0 | 3.0 | 0.00 | 0.23 | 0.23 | 62 | 1014.7 |
| 20260506020334 | 63 | 307 | 2.0 | 3.0 | 0.00 | 0.23 | 0.23 | 61 | 1014.7 |
| 20260506015833 | 64 | 307 | 0.0 | 3.0 | 0.00 | 0.23 | 0.23 | 61 | 1014.7 |
| 20260506015334 | 64 | 307 | 2.0 | 3.0 | 0.00 | 0.23 | 0.23 | 61 | 1014.7 |
| 20260506014833 | 64 | 309 | 0.0 | 1.0 | 0.00 | 0.23 | 0.23 | 60 | 1014.6 |
| 20260506014332 | 64 | 309 | 0.0 | 1.0 | 0.00 | 0.23 | 0.23 | 60 | 1014.7 |
| 20260506013834 | 64 | 309 | 0.0 | 3.0 | 0.00 | 0.23 | 0.23 | 60 | 1014.7 |
| 20260506013333 | 65 | 298 | 2.0 | 3.0 | 0.00 | 0.23 | 0.23 | 59 | 1014.6 |
| 20260506012832 | 65 | 290 | 1.0 | 3.0 | 0.00 | 0.23 | 0.23 | 59 | 1014.7 |
| 20260506012334 | 65 | 281 | 1.0 | 3.0 | 0.00 | 0.23 | 0.23 | 57 | 1014.6 |
| 20260506011832 | 66 | 275 | 1.0 | 5.0 | 0.00 | 0.23 | 0.23 | 59 | 1014.6 |
| 20260506011333 | 66 | 257 | 3.0 | 5.0 | 0.00 | 0.23 | 0.23 | 59 | 1014.7 |
| 20260506010833 | 66 | 295 | 1.0 | 5.0 | 0.00 | 0.23 | 0.23 | 60 | 1014.5 |
| 20260506010559 | 65 | 282 | 2.0 | 5.0 | 0.00 | 0.23 | 0.23 | 59 | 1014.5 |
| 20260506005833 | 65 | 258 | 1.0 | 5.0 | 0.00 | 0.23 | 0.23 | 60 | 1014.5 |
| 20260506005551 | 65 | 243 | 2.0 | 5.0 | 0.00 | 0.23 | 0.23 | 62 | 1014.3 |
| 20260506004832 | 64 | 0 | 1.0 | 3.0 | 0.00 | 0.23 | 0.23 | 62 | 1014.4 |
| 20260506004554 | 64 | 0 | 2.0 | 6.0 | 0.00 | 0.23 | 0.23 | 62 | 1014.5 |
| 20260506003832 | 64 | 0 | 4.0 | 6.0 | 0.00 | 0.23 | 0.23 | 62 | 1014.5 |
| 20260506003332 | 64 | 274 | 1.0 | 2.0 | 0.00 | 0.23 | 0.23 | 63 | 1014.5 |
| 20260506002832 | 63 | 275 | 1.0 | 2.0 | 0.00 | 0.23 | 0.23 | 64 | 1014.5 |
| 20260506002332 | 63 | 281 | 0.0 | 4.0 | 0.00 | 0.23 | 0.23 | 63 | 1014.6 |
| 20260506001832 | 63 | 281 | 0.0 | 5.0 | 0.00 | 0.23 | 0.23 | 62 | 1014.6 |
| 20260506001331 | 64 | 285 | 3.0 | 6.0 | 0.00 | 0.23 | 0.23 | 63 | 1014.6 |
| 20260506001053 | 64 | 303 | 2.0 | 6.0 | 0.00 | 0.23 | 0.23 | 62 | 1014.6 |
| 20260506000331 | 64 | 343 | 0.0 | 4.0 | 0.00 | 0.23 | 0.23 | 62 | 1014.6 |
| 20260505235830 | 64 | 337 | 2.0 | 4.0 | 0.00 | 0.23 | 0.23 | 61 | 1014.6 |